Hourly Weather Snovychi

Today, 24 January, Sunday

Time Temperature Precipitation Wind Pressure Humidity
00:00 0°C° 0 mm 3 mps 715 mmHg 91%
01:00 +1°C° 0 mm 2 mps 715 mmHg 92%
02:00 -1°C° 0 mm 2 mps 714 mmHg 93%
03:00 -1°C° 0 mm 2 mps 714 mmHg 94%
04:00 -1°C° 0 mm 2 mps 713 mmHg 94%
05:00 -1°C° 0 mm 2 mps 713 mmHg 94%
06:00 -1°C° 0 mm 2 mps 713 mmHg 94%
07:00 +2°C° 0 mm 1 mps 713 mmHg 94%
08:00 +2°C° 0 mm 1 mps 713 mmHg 94%
09:00 +2°C° 0.3 mm 1 mps 712 mmHg 94%
10:00 +2°C° 0.3 mm 1 mps 712 mmHg 94%
11:00 +3°C° 0.3 mm 1 mps 712 mmHg 95%
12:00 +2°C° 0.6 mm 2 mps 712 mmHg 95%
13:00 +1°C° 0.6 mm 3 mps 712 mmHg 94%
14:00 +2°C° 0.6 mm 3 mps 712 mmHg 94%
15:00 +2°C° 0.1 mm 3 mps 712 mmHg 93%
16:00 +2°C° 0.1 mm 3 mps 712 mmHg 92%
17:00 +2°C° 0.1 mm 3 mps 713 mmHg 90%
18:00 +1°C° 0 mm 3 mps 713 mmHg 91%
19:00 +1°C° 0 mm 3 mps 714 mmHg 92%
20:00 +1°C° 0 mm 3 mps 714 mmHg 92%
21:00 +1°C° 0 mm 3 mps 715 mmHg 92%
22:00 +2°C° 0 mm 2 mps 715 mmHg 92%
23:00 +2°C° 0 mm 2 mps 715 mmHg 92%

Tomorrow, 25 January, Monday

Time Temperature Precipitation Wind Pressure Humidity
00:00 +1°C° 0 mm 2 mps 715 mmHg 92%
01:00 +1°C° 0 mm 2 mps 715 mmHg 92%
02:00 +2°C° 0 mm 1 mps 715 mmHg 92%
03:00 +1°C° 0 mm 1 mps 715 mmHg 92%
04:00 +1°C° 0 mm 1 mps 715 mmHg 92%
05:00 +1°C° 0 mm 1 mps 715 mmHg 92%
06:00 +1°C° 0 mm 1 mps 716 mmHg 93%
07:00 -1°C° 0 mm 2 mps 716 mmHg 93%
08:00 -1°C° 0 mm 2 mps 716 mmHg 94%
09:00 -1°C° 0 mm 3 mps 716 mmHg 93%
10:00 -1°C° 0 mm 4 mps 715 mmHg 92%
11:00 -1°C° 0 mm 4 mps 715 mmHg 91%
12:00 -1°C° 0.5 mm 5 mps 714 mmHg 93%
13:00 -1°C° 0.5 mm 5 mps 714 mmHg 94%
14:00 -1°C° 0.5 mm 5 mps 713 mmHg 96%
15:00 -2°C° 2.3 mm 6 mps 712 mmHg 97%
16:00 -3°C° 2.3 mm 7 mps 712 mmHg 97%
17:00 -3°C° 2.3 mm 7 mps 711 mmHg 98%
18:00 -4°C° 3.7 mm 8 mps 711 mmHg 98%
19:00 -4°C° 3.7 mm 9 mps 710 mmHg 98%
20:00 -5°C° 3.7 mm 9 mps 710 mmHg 98%
21:00 -5°C° 3.9 mm 10 mps 709 mmHg 97%
22:00 -6°C° 3.9 mm 11 mps 709 mmHg 96%
23:00 -7°C° 3.9 mm 13 mps 709 mmHg 96%

Day after tomorrow, 26 January, Tuesday

Time Temperature Precipitation Wind Pressure Humidity
00:00 -7°C° 2.5 mm 13 mps 709 mmHg 95%
01:00 -7°C° 2.5 mm 13 mps 709 mmHg 95%
02:00 -7°C° 2.5 mm 13 mps 709 mmHg 95%
03:00 -7°C° 2.6 mm 13 mps 710 mmHg 94%
04:00 -9°C° 2.6 mm 14 mps 710 mmHg 94%
05:00 -9°C° 2.6 mm 14 mps 710 mmHg 94%
06:00 -9°C° 1.7 mm 13 mps 711 mmHg 93%
07:00 -9°C° 1.7 mm 13 mps 712 mmHg 93%
08:00 -9°C° 1.7 mm 13 mps 713 mmHg 92%
09:00 -9°C° 0.8 mm 13 mps 713 mmHg 92%
10:00 -9°C° 0.8 mm 13 mps 714 mmHg 92%
11:00 -9°C° 0.8 mm 13 mps 715 mmHg 92%
12:00 -7°C° 0.4 mm 12 mps 715 mmHg 92%
13:00 -7°C° 0.4 mm 12 mps 716 mmHg 92%
14:00 -7°C° 0.4 mm 12 mps 716 mmHg 92%
15:00 -7°C° 0.3 mm 12 mps 717 mmHg 91%
16:00 -7°C° 0.3 mm 11 mps 717 mmHg 90%
17:00 -8°C° 0.3 mm 11 mps 718 mmHg 89%
18:00 -8°C° 0.2 mm 11 mps 718 mmHg 90%
19:00 -8°C° 0.2 mm 10 mps 719 mmHg 91%
20:00 -8°C° 0.2 mm 10 mps 719 mmHg 91%
21:00 -8°C° 0.2 mm 9 mps 720 mmHg 92%
22:00 -8°C° 0.2 mm 9 mps 720 mmHg 92%
23:00 -7°C° 0.2 mm 8 mps 721 mmHg 92%

27 January, Wednesday

Time Temperature Precipitation Wind Pressure Humidity
00:00 -7°C° 0.2 mm 8 mps 721 mmHg 93%
01:00 -7°C° 0.2 mm 8 mps 721 mmHg 93%
02:00 -7°C° 0.2 mm 8 mps 721 mmHg 93%
03:00 -7°C° 0.2 mm 8 mps 721 mmHg 93%
04:00 -7°C° 0.2 mm 8 mps 721 mmHg 93%
05:00 -8°C° 0.2 mm 8 mps 722 mmHg 92%
06:00 -8°C° 0.1 mm 7 mps 722 mmHg 92%
07:00 -8°C° 0.1 mm 7 mps 722 mmHg 91%
08:00 -8°C° 0.1 mm 6 mps 722 mmHg 90%
09:00 -8°C° 0 mm 6 mps 723 mmHg 88%
10:00 -8°C° 0 mm 6 mps 723 mmHg 85%
11:00 -8°C° 0 mm 6 mps 723 mmHg 83%
12:00 -6°C° 0 mm 5 mps 723 mmHg 82%
13:00 -5°C° 0 mm 5 mps 723 mmHg 81%
14:00 -4°C° 0 mm 4 mps 723 mmHg 81%
15:00 -5°C° 0 mm 4 mps 723 mmHg 83%
16:00 -6°C° 0 mm 3 mps 723 mmHg 85%
17:00 -7°C° 0 mm 3 mps 723 mmHg 86%
18:00 -8°C° 0 mm 3 mps 723 mmHg 86%
19:00 -9°C° 0 mm 3 mps 724 mmHg 86%
20:00 -9°C° 0 mm 3 mps 724 mmHg 86%
21:00 -10°C° 0 mm 3 mps 724 mmHg 85%
22:00 -9°C° 0 mm 2 mps 724 mmHg 85%
23:00 -10°C° 0 mm 2 mps 724 mmHg 84%

28 January, Thursday

Time Temperature Precipitation Wind Pressure Humidity
00:00 -10°C° 0 mm 2 mps 724 mmHg 85%
01:00 -12°C° 0 mm 2 mps 724 mmHg 85%
02:00 -12°C° 0 mm 2 mps 724 mmHg 85%
03:00 -10°C° 0 mm 2 mps 724 mmHg 85%
04:00 -10°C° 0 mm 2 mps 724 mmHg 85%
05:00 -10°C° 0 mm 2 mps 724 mmHg 85%
06:00 -9°C° 0 mm 2 mps 724 mmHg 86%
07:00 -9°C° 0 mm 2 mps 724 mmHg 88%
08:00 -8°C° 0 mm 2 mps 724 mmHg 90%
09:00 -7°C° 0 mm 2 mps 724 mmHg 91%
10:00 -7°C° 0 mm 3 mps 725 mmHg 92%
11:00 -6°C° 0 mm 3 mps 725 mmHg 94%
12:00 -6°C° 0 mm 3 mps 724 mmHg 94%
13:00 -5°C° 0 mm 3 mps 724 mmHg 94%
14:00 -4°C° 0 mm 3 mps 724 mmHg 95%
15:00 -4°C° 0.1 mm 2 mps 723 mmHg 95%
16:00 -4°C° 0.1 mm 2 mps 723 mmHg 96%
17:00 -2°C° 0.1 mm 1 mps 723 mmHg 97%
18:00 -3°C° 0 mm 1 mps 723 mmHg 97%
19:00 -4°C° 0 mm 1 mps 723 mmHg 97%
20:00 -6°C° 0 mm 1 mps 723 mmHg 96%

29 January, Friday

Time Temperature Precipitation Wind Pressure Humidity
Show more